Location: Newark
(7.0858°N, 171.3717°E)
Time: 01:44:57
(UTC+00:00)

Transit 4A - Pass Details

Date: 02 December 2020
Orbit: 864 x 980 km, 66.8° (Epoch: 20 January)

Event Time Altitude Azimuth Distance (km) Brightness Sun altitude
Rises 18:23:43 0° 203° (SSW) 3,542 10.9 -2.8°
Reaches altitude 10° 18:26:12 10° 204° (SSW) 2,617 10.3 -2.2°
Maximum altitude 18:32:18 78° 290° (WNW) 966 8.0 -0.8°
Drops below altitude 10° 18:38:35 10° 16° (NNE) 2,689 10.3 0.6°
Sets 18:41:10 0° 18° (NNE) 3,647 11.0 1.2°
